Weather Roundup
Issued by NWS Corpus Christi, TX

Home | Current Version | Previous Version | Text Only | Print | Product List | Glossary On
Versions: 1 2 3 4 5 6 7 8 9 10 11 12 13 14 15 16 17 18 19 20 21 22 23 24 25 26 27 28 29 30 31 32 33 34 35 36 37 38 39 40 41 42 43 44 45 46 47 48 49 50
000
ASUS44 KCRP 220310
HRRCRP

SOUTH TEXAS REGIONAL WEATHER ROUNDUP
NATIONAL WEATHER SERVICE CORPUS CHRISTI TX
1000 PM CDT MON AUG 21 2017


TXZ229>244-220400-
...CORPUS CHRISTI AREA OBSERVATIONS...

CITY           SKY/WX    TMP DP  RH WIND       PRES   REMARKS
CORPUS CHRISTI PTCLDY    84  75  74 SE9       30.03R HX  92
NAS CORPUS CHR PTCLDY    85  77  77 SE18      30.03R HX  95
ROCKPORT       CLEAR     85  75  72 SE16      30.03R HX  93
KINGSVILLE ARP FAIR      83  78  83 E8        30.04R HX  94
KINGSVILLE NAS PTCLDY    83  78  85 SE13      30.03R HX  93
ALICE          CLEAR     83  73  72 SE14      30.02R
FALFURRIAS     CLEAR     83  74  74 E9        30.02R
$$

...VICTORIA AREA OBSERVATIONS...

CITY           SKY/WX    TMP DP  RH WIND       PRES   REMARKS
PORT LAVACA    CLEAR     82  73  76 SE8       30.05R
VICTORIA       CLEAR     82  74  76 SE10      30.05R
BEEVILLE       FAIR      83  75  78 SE9       30.04R HX  90
PLEASANTON     NOT AVBL
SAN ANTONIO    PTCLDY    86  69  56 SE13      30.05R HX  90
$$

...LAREDO AREA OBSERVATIONS...

CITY           SKY/WX    TMP DP  RH WIND       PRES   REMARKS
LAREDO         PTCLDY    89  69  51 SE22G28   30.00R HX  93
COTULLA        MOCLDY    90  64  42 SE21G26   30.01R HX  91
DEL RIO        CLEAR     88  62  41 E9        30.00R
MCALLEN        CLEAR     85  74  69 E14       30.01R HX  92
HEBBRONVILLE   CLEAR     83  70  65 SE10      30.05R
$$

...OTHER TEXAS OBSERVATIONS...

CITY           SKY/WX    TMP DP  RH WIND       PRES   REMARKS
BROWNSVILLE    CLEAR     82  77  84 E10       30.02R HX  90
HOUSTON        PTCLDY    81  74  79 SE8       30.07R
COL. STATION   CLEAR     84  72  67 SE10      30.06R
AUSTIN         MOCLDY    87  71  58 SE9       30.04R HX  93
WACO           CLEAR     86  68  54 SE7       30.04R
FORT WORTH     PTCLDY    87  71  58 SE13      30.03R HX  93
WICHITA FALLS  CLEAR     81  68  64 SE10      30.02R
LUBBOCK        MOCLDY    71  68  90 E7        30.12R
EL PASO        CLEAR     80  67  64 E3        30.11R
$$

...MARINE OBSERVATIONS...

STATION/POSITION TIME  SKY/WX   TEMP    WIND        PRES    VSBY  WAVE   SWELL
                                AIR SEA DIR/SP/G                  HT/PER HT/PER
                 (UTC)          (F)     (DEG/KT/KT) (MB)    (MI)  (FT/S) (FT/S)
PORT ARANSAS     0200            84 86     CALM     1016.7R
BUOY 90 E PORT A 0250            84 85   90/ 10/ 12 1017.7R         3/ 5   2/ 5
BUOY 45 SE BAFFI 0150            83     120/ 19/ 25 1015.5          3/ 5
BUOY 200 E PT IS 0250            85 88  110/ 14/ 17 1017.6R         4/ 5
BUOY 15 E GALVES 0150            86 87  140/ 12/ 16 1017.9          2/ 5
$$




USA.gov is the U.S. government's official web portal to all federal, state and local government web resources and services.